User: anonymous   Login
Location: Dennis Manor
(64.8292°N, 147.5397°W)
Time: 13:35:24
(UTC+00:00)
Language:

Envisat - Orbit

View from above orbital plane
View from above orbital plane
View from above satellite
View from above satellite

Ground track
Ground track

The orbit data is extracted from the following two-line orbital elements,

1 27386U 02009A   21135.95184201  .00000010  00000-0  16619-4 0  9997
2 27386  98.1483 131.6701 0001283  86.0754 327.3569 14.38025490  6337
Epoch (UTC): 15 May 2021 22:50:39
Eccentricity: 0.0001283
inclination: 98.1483°
perigee height: 764 km
apogee height: 766 km
right ascension of ascending node: 131.6701°
argument of perigee: 86.0754°
revolutions per day: 14.38025490
mean anomaly at epoch: 327.3569°
orbit number at epoch: 633

The dashed part of the orbit path shows where the satellite is in the earth's shadow,  

DLR